TIME,DELAY(SENSOR),PRES,T(CTD),SAL,OXYGEN,RAWTEMP,T(OPTODE),TCPHASE,TURBIDITY,TURBIDITY_GAIN,FLUOR,BETA,CDOM,ED411.5,ED443.8,ED489.6,PAR,COMP,TILT,TILTY(TILT),CHECK
1340575671,6468,252.1699981689453000,5.9095997810363770,34.8844985961914060,329.0974121093750000,624.0637817382812000,5.8895092010498050,33.0233612060546900,16,3,48,109,63,2147638673,2147399025,2147280100,2148319482,504,2,-4,30383
1340575732,6469,248.8699951171875000,5.9296998977661130,34.8824996948242200,328.6369018554687500,623.5131835937500000,5.9072527885437010,33.0299301147460940,16,3,46,109,62,2147639199,2147397206,2147282116,2148318916,3578,0,-4,7179
1340575794,6466,245.4400024414062500,5.9187002182006840,34.8809013366699200,330.7737121582031000,623.6904907226562000,5.9015412330627440,32.9573783874511700,16,3,48,109,64,2147636521,2147399391,2147277453,2148320283,3148,0,-4,2090
1340575856,6468,241.9700012207031200,5.9313001632690430,34.8800010681152340,327.3102111816406000,623.3671875000000000,5.9119591712951660,33.0746612548828100,16,3,50,109,63,2147635610,2147396177,2147277480,2148318444,2712,0,-4,20926
1340575917,6468,238.5200042724609400,5.9373998641967770,34.8783988952636700,323.5549926757812500,623.1326293945312000,5.9195179939270020,33.2051887512207000,16,3,48,111,64,2147640004,2147393489,2147280329,2148319002,2280,0,-4,17923
1340575979,6467,235.0000000000000000,5.9375000000000000,34.8759002685546900,321.1784973144531000,623.1773071289062000,5.9180769920349120,33.2925605773925800,16,3,48,117,64,2147639346,2147397814,2147281535,2148317484,2109,0,-4,60105
1340576039,6469,231.6100006103515600,5.9370999336242680,34.8698005676269500,324.4823913574219000,623.1505126953125000,5.9189429283142090,33.1720809936523440,16,3,48,111,63,2147640836,2147394628,2147280017,2148317110,1941,0,-4,44509
1340576101,6466,228.1399993896484400,5.9644999504089355,34.8707008361816400,326.8731994628906000,622.5205078125000000,5.9392380714416500,33.0751304626464840,16,3,50,106,64,2147636748,2147397110,2147280209,2148317110,1569,0,-4,52695
1340576161,6468,224.8200073242187500,5.9973998069763180,34.8713989257812500,328.0371093750000000,621.0819702148438000,5.9855670928955080,33.0083389282226560,16,3,48,116,62,2147637576,2147399574,2147279917,2148319263,1347,0,-4,14700
1340576223,6469,221.3800048828125000,6.0104999542236330,34.8726005554199200,327.8800964355469000,621.0963745117188000,5.9851059913635250,33.0143699645996100,16,3,48,112,64,2147634426,2147394902,2147280022,2148319391,1179,0,-4,44713
1340576287,6468,217.8800048828125000,5.9857997894287110,34.8638000488281250,330.9325866699219000,621.3906860351562000,5.9756259918212890,32.9114494323730500,16,3,48,111,63,2147638432,2147394737,2147280269,2148319464,811,1,-4,43192
1340576347,6467,214.6100006103515600,6.0218000411987305,34.8666992187500000,331.2987976074219000,620.5330200195312000,6.0032439231872560,32.8834495544433600,16,3,49,111,63,2147635372,2147393521,2147278993,2148320104,401,2,-4,16137
1340576411,6467,211.1900024414062500,5.9944000244140625,34.8592987060546900,332.7944030761719000,621.2938232421875000,5.9787502288818360,32.8446083068847660,16,3,50,110,62,2147636448,2147394628,2147277210,2148318431,70,2,-4,11992
1340576471,6468,208.0500030517578000,5.9882998466491700,34.8562011718750000,334.8884887695312500,621.5056152343750000,5.9719281196594240,32.7751808166503900,16,3,48,110,63,2147639076,2147392941,2147278157,2148319867,3295,0,-4,58596
1340576535,6467,204.8099975585937500,6.0093002319335940,34.8563995361328100,335.6140136718750000,620.8704833984375000,5.9923782348632810,32.7388191223144500,16,3,48,109,63,2147634166,2147398467,2147280301,2148318692,2940,0,-4,38761
1340576597,6470,201.7899932861328000,6.0100002288818360,34.8512992858886700,336.4913940429687500,620.8532714843750000,5.9929308891296390,32.7082710266113300,16,3,48,112,64,2147637467,2147394491,2147279240,2148320758,2798,1,-4,36136
1340576661,6468,198.7899932861328000,6.0121998786926270,34.8502006530761700,337.4955139160156000,620.7442016601562000,5.9964470863342285,32.6716499328613300,16,3,49,115,64,2147636525,2147394623,2147280754,2148319835,2482,0,-4,3245
1340576725,6468,195.8699951171875000,6.0447998046875000,34.8526992797851560,337.2318115234375000,619.9246215820312000,6.0228309631347660,32.6666488647460940,16,3,48,110,63,2147639579,2147397334,2147279327,2148318057,2307,2,-4,53548
1340576789,6467,193.0399932861328000,6.1402997970581055,34.8639984130859400,334.1445007324219000,617.3720703125000000,6.1049580574035645,32.7287406921386700,16,3,48,110,64,2147638262,2147396845,2147278587,2148320017,2145,1,-4,25437
1340576849,6469,190.5000000000000000,6.1711001396179200,34.8675994873046900,329.5835876464844000,616.1046142578125000,6.1457200050354000,32.8663711547851560,16,3,48,109,64,2147636123,2147393539,2147277347,2148318084,1933,0,-4,19648
1340576913,6468,187.8300018310547000,6.2038002014160160,34.8702011108398440,325.7590942382812500,615.0109863281250000,6.1808719635009770,32.9832000732421900,15,3,48,109,64,2147637704,2147396625,2147279551,2148321421,1660,1,-4,33510
1340576973,6467,185.4299926757812500,6.2079000473022460,34.8680000305175800,323.1607971191406000,614.7639770507812000,6.1888070106506350,33.0722389221191400,16,3,48,107,64,2147637828,2147397384,2147278934,2148315771,1339,1,-4,25629
1340577037,6469,183.0099945068359400,6.2361998558044430,34.8695983886718750,322.4266967773437500,613.9929809570312000,6.2135848999023440,33.0854682922363300,15,3,49,108,64,2147634673,2147396182,2147279373,2148319432,1135,1,-4,42126
1340577099,6468,180.7899932861328000,6.2227997779846190,34.8665008544921900,321.6405944824219000,614.2587280273438000,6.2050461769104000,33.1186218261718750,16,3,50,119,64,2147638244,2147396625,2147278989,2148315341,911,0,-4,25525
1340577190,6468,176.9700012207031200,6.1940999031066895,34.8559989929199200,323.3894042968750000,615.1348266601562000,6.1768908500671390,33.0707206726074200,16,3,50,114,64,2147640685,2147393713,2147278929,2148318491,331,0,-4,61958
1340577252,6467,173.6100006103515600,6.1345000267028810,34.8418006896972660,327.1524963378906000,616.6660156250000000,6.1276650428771970,32.9625396728515600,15,3,48,111,62,2147637284,2147395281,2147280255,2148315825,3274,2,-4,63278
1340577316,6468,170.2299957275390600,6.1263999938964840,34.8359985351562500,336.9357910156250000,617.1444702148438000,6.1122779846191410,32.6285285949707000,16,3,50,114,63,2147639145,2147393841,2147278266,2148317690,2768,0,-4,24945
1340577376,6467,167.1100006103515600,6.1438999176025390,34.8334999084472660,343.0067138671875000,616.7373046875000000,6.1253738403320310,32.4147911071777340,16,3,48,122,62,2147637412,2147395661,2147278678,2148315245,2498,0,-4,54945
1340577440,6467,163.8600006103515600,6.1546998023986820,34.8302001953125000,342.3591918945312500,616.3715209960938000,6.1371359825134280,32.4303283691406250,15,3,50,113,62,2147639830,2147393192,2147279931,2148317393,2082,0,-4,190
1340577500,6469,160.8500061035156200,6.1591000556945800,34.8287010192871100,342.2340087890625000,616.2645263671875000,6.1405749320983890,32.4324302673339840,16,3,50,119,62,2147635753,2147394573,2147280378,2148319044,1909,0,-4,26987
1340577564,6468,157.7100067138672000,6.1763000488281250,34.8269004821777340,342.7603149414062500,615.7230834960938000,6.1579799652099610,32.4051094055175800,16,3,50,112,62,2147635917,2147393604,2147278783,2148317759,1544,0,-4,25643
1340577624,6467,154.7799987792968800,6.1800999641418460,34.8236007690429700,342.1189880371094000,615.5731811523438000,6.1627998352050780,32.4242591857910160,17,3,50,118,63,2147638459,2147394568,2147279661,2148318239,1150,0,-4,44634
1340577688,6467,151.7500000000000000,6.1943998336791990,34.8240013122558600,343.8948059082031000,615.1976928710938000,6.1748709678649900,32.3579406738281250,16,3,48,119,62,2147637147,2147395003,2147278436,2148320977,704,0,-4,62638
1340577748,6468,148.9700012207031200,6.2066998481750490,34.8232002258300800,345.8884887695312500,614.8142089843750000,6.1871948242187500,32.2847709655761700,16,3,50,118,62,2147636658,2147395748,2147279295,2148318162,2460,0,-4,64668
1340577812,6467,145.9900054931640600,6.2211999893188480,34.8213996887207000,347.4224853515625000,614.3696899414062000,6.2014789581298830,32.2258987426757800,16,3,49,118,62,2147636492,2147394605,2147277005,2148319250,3209,0,-4,9983
1340577874,6468,143.1100006103515600,6.2190999984741210,34.8179016113281250,346.5781860351562500,614.5385131835938000,6.1960558891296390,32.2570915222168000,16,3,49,117,62,2147635715,2147395076,2147277151,2148318344,2906,0,-4,56539
1340577938,6469,140.1499938964843800,6.2319998741149900,34.8153991699218750,345.4382934570312500,614.0499877929688000,6.2117500305175780,32.2866096496582000,16,3,50,119,62,2147637974,2147397082,2147279053,2148317138,2744,0,-4,5226
1340577998,6469,137.4100036621093800,6.2245998382568360,34.8102989196777340,344.4906005859375000,613.9354858398438000,6.2154312133789060,32.3161087036132800,15,3,50,118,62,2147639707,2147393115,2147278953,2148316895,2571,2,-4,64715
1340578062,6468,134.3500061035156200,6.2396998405456540,34.8077011108398440,342.9921875000000000,613.7158813476562000,6.2224850654602050,32.3629493713378900,16,3,50,115,62,2147638541,2147396959,2147282422,2148318006,2171,1,-4,16621
1340578122,6467,131.3399963378906200,6.2466998100280760,34.8047981262207000,340.5466918945312500,613.1046142578125000,6.2421231269836430,32.4348487854003900,16,3,50,118,62,2147637631,2147394394,2147280777,2148318354,1794,0,-4,50910
1340578186,6468,128.0000000000000000,6.2723999023437500,34.8055992126464840,344.5421142578125000,612.6768798828125000,6.2558588981628420,32.2927894592285160,16,3,50,121,62,2147636356,2147395679,2147278632,2148316959,1586,2,-4,37119
1340578246,6467,124.6900024414062500,6.2922000885009770,34.8008995056152340,349.3117065429687500,612.1887207031250000,6.2715377807617190,32.1261215209960940,16,3,50,124,62,2147635597,2147391666,2147276415,2148318010,1398,2,-4,20455
1340578310,6468,121.1299972534179700,6.3024997711181640,34.7997016906738300,351.3334960937500000,611.7911987304688000,6.2843022346496580,32.0529403686523440,16,3,52,119,62,2147637946,2147392031,2147277796,2148318870,1207,0,-4,7703
1340578370,6467,117.7200012207031200,6.3095002174377440,34.7977981567382800,351.9363098144531000,611.6035766601562000,6.2903227806091310,32.0298385620117200,16,3,50,120,62,2147635190,2147394166,2147278010,2148319880,731,2,-4,13676
1340578434,6469,114.0999984741211000,6.3344001770019530,34.7901000976562500,351.8062133789062500,610.8964233398438000,6.3130278587341310,32.0219001770019500,16,3,54,123,63,2147637210,2147392118,2147275460,2148319871,101,1,-4,32704
1340578496,6469,110.6999969482421900,6.3474001884460450,34.7883987426757800,352.2748107910156000,610.4431762695312000,6.3275718688964840,31.9991092681884770,16,3,52,125,62,2147634870,2147393403,2147279011,2148320511,3434,0,-4,56587
1340578560,6469,107.3399963378906200,6.3723998069763180,34.7851982116699200,352.8725891113281000,609.6984863281250000,6.3514709472656250,31.9667606353759770,16,3,56,127,62,2147637878,2147393393,2147278253,2148316991,3170,1,-4,11656
1340578620,6468,104.3600006103515600,6.3846998214721680,34.7837982177734400,353.1812133789062500,609.1138916015625000,6.3702278137207030,31.9469203948974600,16,3,56,122,62,2147637737,2147393718,2147278564,2148321201,3108,0,-4,3365
1340578684,6467,101.4199981689453100,6.4091000556945800,34.7802009582519500,353.1666870117187500,608.5250854492188000,6.3891139030456540,31.9373207092285160,16,3,57,123,61,2147639017,2147394710,2147277855,2148317910,2967,1,-4,55132
1340578744,6468,98.8300018310546900,6.4156999588012695,34.7789001464843750,352.4495849609375000,608.2708740234375000,6.3972678184509280,31.9563198089599600,16,3,58,121,62,2147635546,2147392721,2147276141,2148319597,2715,1,-4,1081
1340578808,6469,96.1800003051757800,6.4387001991271970,34.7745018005371100,351.9285888671875000,607.6188964843750000,6.4181771278381350,31.9621391296386720,16,3,60,121,62,2147639076,2147390779,2147278998,2148319460,2449,0,-4,29049
1340578870,6468,93.6999969482421900,6.4614000320434570,34.7733993530273440,352.0007019042969000,606.8958740234375000,6.4413599967956540,31.9473495483398440,16,3,62,126,62,2147636818,2147393869,2147273960,2148318248,2296,0,-4,57376
1340578960,6466,89.5800018310546900,6.5020999908447270,34.7727012634277340,354.9128112792969000,605.5280151367188000,6.4852070808410645,31.8299694061279300,15,3,72,140,62,2147641160,2147395506,2147275871,2148315546,1970,1,-4,52007
1340579022,6468,85.9899978637695300,6.5117998123168945,34.7718009948730500,356.5505065917969000,605.1962890625000000,6.4958338737487790,31.7713203430175780,16,3,74,132,62,2147639176,2147392713,2147276305,2148316091,1498,0,-4,52073
1340579086,6468,82.3000030517578100,6.5464000701904300,34.7683982849121100,356.9254150390625000,604.0380859375000000,6.5329399108886720,31.7396907806396500,14,3,80,145,63,2147638536,2147391441,2147274884,2148316507,1208,0,-4,7478
1340579148,6469,78.9400024414062500,6.5871000289916990,34.7653999328613300,356.5234069824219000,602.9230957031250000,6.5686488151550290,31.7340793609619140,17,3,84,143,61,2147639904,2147393952,2147275528,2148318746,670,1,-4,6362
1340579212,6467,75.5999984741211000,6.6455998420715330,34.7592010498046900,355.4473876953125000,601.2495727539062000,6.6222229003906250,31.7401294708251950,20,3,91,142,62,2147638728,2147393060,2147278463,2148315762,3315,0,-4,1914
1340579274,6469,72.4899978637695300,6.6697001457214355,34.7560997009277340,355.0775146484375000,600.3353881835938000,6.6514778137207030,31.7366294860839840,16,3,99,146,64,2147638605,2147394508,2147277170,2148317604,2932,0,-4,43393
1340579338,6470,69.4000015258789000,6.7245998382568360,34.7540016174316400,355.3034057617187500,598.6461791992188000,6.7055110931396480,31.7009391784667970,16,3,111,150,63,2147637645,2147392607,2147275122,2148317375,2306,2,-4,53616
1340579400,6470,66.3199996948242200,6.8562998771667480,34.7532997131347660,354.7116088867187500,594.8807983398438000,6.8258647918701170,31.6567897796630860,16,3,118,158,63,2147638546,2147394865,2147277910,2148317663,1791,2,-4,18178
1340579464,6470,62.9799995422363300,6.8923001289367680,34.7583999633789060,352.4507141113281000,593.4932250976562000,6.8701801300048830,31.7066993713378900,16,3,114,166,63,2147638413,2147393411,2147277206,2148316086,1678,2,-4,26207
1340579526,6470,59.4700012207031250,6.9099001884460450,34.7598991394043000,350.4436950683594000,592.2681274414062000,6.9092941284179690,31.7516593933105470,15,3,105,152,64,2147636781,2147395908,2147274591,2148317330,1570,0,-4,56760
1340579590,6469,55.4599990844726560,7.0805997848510740,34.7593994140625000,346.7579956054687500,588.2736816406250000,7.0367197990417480,31.8058109283447270,16,3,106,147,63,2147639258,2147391332,2147274829,2148318911,952,2,-4,9523
1340579652,6470,51.3699989318847660,7.2842998504638670,34.7549018859863300,346.1802062988281000,581.4749145507812000,7.2532768249511720,31.7121696472167970,20,3,139,170,63,2147641023,2147393933,2147273160,2148317403,548,2,-4,5049
1340579739,6468,46.6100006103515600,7.5865998268127440,34.7476997375488300,349.0151977539062500,574.0750122070312000,7.4885010719299320,31.4972591400146500,25,3,213,195,63,2147635034,2147396145,2147275670,2148316643,2920,2,-4,36982
1340579801,6470,44.7200012207031250,7.8603000640869140,34.7513008117675800,348.8633117675781000,566.0228271484375000,7.7439060211181640,31.3713493347167970,24,3,220,188,62,2147639154,2147394074,2147274449,2148315177,2524,2,-4,49065
1340579888,6470,42.4399986267089840,7.9376997947692870,34.7559013366699200,349.3493957519531000,560.6206054687500000,7.9149398803710940,31.2682495117187500,25,3,211,197,64,2147636424,2147395872,2147273800,2148315291,2526,2,-4,65428
1340579950,6469,39.7799987792968750,8.3803997039794920,34.7489013671875000,349.3736877441406000,548.3666992187500000,8.3019828796386720,31.0717506408691400,27,3,237,227,62,2147638088,2147393947,2147274911,2148316456,2279,2,-4,35330
1340580041,6470,35.2700004577636700,8.8037004470825200,34.7470016479492200,350.3742065429687500,532.3107299804688000,8.8072586059570310,30.7873401641845700,34,3,294,272,62,2147638212,2147392913,2147271076,2148317316,1664,2,-4,24119
1340580103,6470,31.4300003051757800,9.4989995956420900,34.7419013977050800,348.8132934570312500,516.8372192382812000,9.2922897338867190,30.5984306335449220,44,3,511,381,64,2147637440,2147390687,2147271300,2148312365,3385,2,-4,297
1340580167,6471,28.1299991607666000,9.8165998458862300,34.7136001586914060,348.7416992187500000,501.1921081542969000,9.7808990478515620,30.3632507324218750,127,3,1509,820,65,2147640995,2147391725,2147269476,2148313928,2587,0,-4,23837
1340580229,6469,24.9699993133544920,10.0451002120971680,34.7224998474121100,353.2962951660156000,494.0320129394531000,10.0039300918579100,30.1114006042480470,136,3,2313,872,66,2147637457,2147389841,2147269074,2148311926,2616,0,-4,23836
1340580293,6472,21.3400001525878900,10.4556999206542970,34.7136993408203100,357.4534912109375000,478.8848876953125000,10.4746198654174800,29.7582702636718750,114,3,1102,574,68,2147636666,2147390834,2147269078,2148313224,2774,2,-4,45673
1340580355,6471,18.6100006103515620,11.6887998580932620,34.7234001159668000,356.7915039062500000,442.7872009277344000,11.5905303955078120,29.2593803405761720,92,3,975,544,66,2147639373,2147386824,2147267597,2148311231,2370,1,-4,15696
1340580430,6469,18.0100002288818360,11.7237997055053710,34.7383995056152340,359.7807006835937500,440.3044128417969000,11.6670103073120120,29.1330604553222660,84,3,670,562,65,2147638322,2147387660,2147267501,2148309919,3011,2,-6,19562
1340580675,6471,15.0200004577636720,12.2523002624511720,34.7117996215820300,360.4165039062500000,423.4702148437500000,12.1846599578857420,28.8788890838623050,100,3,768,632,62,2147635313,2147387738,2147258623,2148309023,1724,1,-4,11369
1340580748,6471,11.5299997329711910,12.6145000457763670,34.7183990478515600,360.0152893066406000,410.6758117675781000,12.5771303176879880,28.7145099639892580,102,3,725,619,62,2147639163,2147389494,2147256109,2148306802,738,3,-6,43936
1340580813,6471,7.9000000953674320,12.9272003173828120,34.7168998718261700,356.8941040039062500,399.1690063476562500,12.9294395446777340,28.6515293121337900,102,3,644,564,61,2147639331,2147388881,2147259268,2148307227,820,1,-5,57107
1340580865,6470,5.0199999809265140,13.0478000640869140,34.7290000915527340,354.4461059570312500,395.1307983398437500,13.0529298782348630,28.6711997985839840,95,3,607,541,62,2147642536,2147391386,2147257888,2148304355,911,-1,-9,21813
1340580912,6471,3.7899999618530273,0.0000000000000000,0.0000000000000000,353.7016906738281000,394.8308105468750000,13.0621099472045900,28.6898193359375000,96,3,610,525,61,2147643446,2147390061,2147260466,2148307053,3366,-1,-3,30665
1340580954,6469,1.8600000143051147,0.0000000000000000,0.0000000000000000,353.2114868164062500,394.8322143554687500,13.0620603561401370,28.7049102783203120,103,3,633,487,61,2147647491,2147394056,2147261242,2148309050,786,-14,-2,63013
